Regional Weather Roundup
Issued by NWS

Home | Current Version | Previous Version | Graphics & Text | Print | Product List | Glossary On
Versions: 1 2 3 4 5 6 7 8 9 10 11 12 13 14 15 16 17 18 19 20 21 22 23 24 25 26 27 28 29 30 31 32 33 34 35 36 37 38 39 40 41 42 43 44 45 46 47 48 49 50
000
ASUS43 KLOT 201010
RWRIL

ILLINOIS REGIONAL WEATHER ROUNDUP
NATIONAL WEATHER SERVICE CHICAGO/ROMEOVILLE IL
500 AM CDT SUN APR 20 2014

NOTE: "FAIR" INDICATES FEW OR NO CLOUDS BELOW 12,000 FEET WITH NO
SIGNIFICANT WEATHER AND/OR OBSTRUCTIONS TO VISIBILITY.

* THESE STATIONS ARE NOT UNDER NWS QUALITY CONTROL. THEY ALSO MAY NOT
  REPORT WEATHER SUCH AS PRECIPITATION OR FOG.

ILZ001-002-007-009-015-016-024-201100-
NORTHWEST ILLINOIS

CITY           SKY/WX    TMP DP  RH WIND       PRES   REMARKS
MOLINE         MOCLDY    52  37  56 S8        30.15R
STERLING*      PTCLDY    48  37  66 SE8       30.18R
SAVANNA*       MOCLDY    49  38  65 SE6       30.16S
$$

ILZ003-004-008-010-011-017-018-201100-
NORTH CENTRAL ILLINOIS

CITY           SKY/WX    TMP DP  RH WIND       PRES   REMARKS
ROCKFORD       PTCLDY    48  36  63 S9        30.21R
FREEPORT*      PTCLDY    51  41  68 S12       30.19R
ROCHELLE*      PTCLDY    46  37  69 S12       30.19S
DE KALB*       PTCLDY    42  33  71 SE8       30.21S
PERU*          PTCLDY    48  38  66 SE3       30.20S
$$

ILZ005-006-012>014-019>023-201100-
NORTHEAST ILLINOIS

CITY           SKY/WX    TMP DP  RH WIND       PRES   REMARKS
CHICAGO-OHARE  PTCLDY    45  28  51 S7        30.21S
CHICAGO-MIDWAY PTCLDY    48  28  46 S8        30.21F
AURORA         CLEAR     43  32  65 SE8       30.21S
LANSING*       CLEAR     44  26  49 SE8       30.23F
WAUKEGAN       CLEAR     42  35  76 SE6       30.19F
DUPAGE AIRPORT CLEAR     43  32  65 S3        30.20S
KANKAKEE*      CLEAR     44  32  63 SE12      30.23S
WHEELING       CLEAR     42  32  67 S6        30.21F
MORRIS*        CLEAR     42  32  67 CALM      30.21R
ROMEOVILLE*    CLEAR     45  28  52 S9        30.22R
NORTHERLY ISL    N/A     48  33  56 SE5         N/A
$$

LMZ740>746-201100-
SOUTHERN LAKE MICHIGAN

STATION/POSITION SKY/WX   TEMP    WIND        PRES    VSBY  WAVE
                          AIR SEA DIR/SP/G                  HT/PER
                          (F)     (DEG/KT/KT) (MB)    (MI)  (FT/S)
WAUKEGAN HARBOR            43     190/  7/ 10 1024.0F
HARRISON CRIB              45     160/ 10/ 12   N/A
BURNHAM HARBOR             48     170/  6/ 13   N/A
CALUMET HARBOR             47     140/ 10/ 14 1023.7F
MICHIGAN CITY              45     120/ 14/ 18   N/A
$$

ILZ025>027-034>036-040-047-049-050-058-095>099-201100-
WEST-CENTRAL ILLINOIS

CITY           SKY/WX    TMP DP  RH WIND       PRES   REMARKS
QUINCY         MOCLDY    59  39  47 S7        30.16S
GALESBURG*     PTCLDY    52  39  61 SE6       30.17R
MACOMB*        PTCLDY    50  39  66 S7        30.19S
JACKSONVILLE*  MOCLDY    52  38  58 SE5       30.19S
PITTSFIELD*    MOCLDY    57  41  55 S5        30.18S
$$

ILZ028>032-037-038-041>044-048-051>054-059>061-201100-
CENTRAL ILLINOIS

CITY           SKY/WX    TMP DP  RH WIND       PRES   REMARKS
PONTIAC        PTCLDY    45  39  81 SE7       30.21S
BLOOMINGTON    PTCLDY    48  36  63 SE12      30.21S
DECATUR        PTCLDY    41  36  82 SE5       30.22S
PEORIA         MOCLDY    52  38  58 S6        30.19S
LACON*         PTCLDY    49  38  67 CALM      30.19R
LINCOLN*       MOCLDY    47  39  72 SE5       30.20S
SPRINGFIELD    MOCLDY    51  38  60 SE7       30.19S
TAYLORVILLE    PTCLDY    52  37  58 SE8       30.20S
$$

ILZ033-039-045-046-055>057-062-063-201100-
EAST-CENTRAL ILLINOIS

CITY           SKY/WX    TMP DP  RH WIND       PRES   REMARKS
CHAMPAIGN      CLEAR     43  37  79 E9        30.22S
RANTOUL*       PTCLDY    46  37  72 CALM      30.24S
MATTOON        CLEAR     51  37  58 SE7       30.21S
PARIS*         CLEAR     49  37  65 E6        30.24S
$$

ILZ079-100>102-201100-
SOUTHWEST ILLINOIS

CITY           SKY/WX    TMP DP  RH WIND       PRES   REMARKS
ALTON          CLEAR     47  43  88 CALM      30.20F
BELLEVILLE     PTCLDY    47  44  90 CALM      30.19S
CAHOKIA*       CLEAR     47  44  90 SE5       30.19S
SPARTA*        PTCLDY    50  43  76 CALM      30.21R
$$

ILZ064>066-069>071-074>076-080>082-084>086-088>090-092>094-201100-
SOUTH-CENTRAL ILLINOIS

CITY           SKY/WX    TMP DP  RH WIND       PRES   REMARKS
CARBONDALE     CLEAR     45  43  93 CALM      30.19S
CAIRO*         CLEAR     51  45  79 CALM      30.19S
MARION         CLEAR     46  43  87 CALM      30.20S
MT. VERNON     CLEAR     43  30  61 CALM      30.21S
CENTRALIA*       N/A     47  41  81 CALM      30.20S
SALEM*         CLEAR     55  40  58 E3        30.21S
METROPOLIS*    CLEAR     47  42  84 CALM      30.19S
$$

ILZ067-068-072-073-078-083-087-091-201100-
SOUTHEAST ILLINOIS

CITY           SKY/WX    TMP DP  RH WIND       PRES   REMARKS
FAIRFIELD*     CLEAR     52  43  71 CALM      30.21S
HARRISBURG*    CLEAR     46  42  88 CALM      30.22S
ROBINSON*      CLEAR     45  43  93 CALM      30.24R
CARMI*         CLEAR     48  47  95 CALM      30.21S
$$

ABBREVIATIONS USED IN REMARKS
   TC - TEMPERATURE IN CELSIUS
  WCI - WIND CHILL INDEX
   HX - HEAT INDEX
  VSB - VISIBILITY
$$




USA.gov is the U.S. government's official web portal to all federal, state and local government web resources and services.